DW6399 Weather Reports


time (UTC)temp
F
wind
direction
speed
knots
gust
knots
rain 1hr
in
rain 24hr
in
rain mn
in
humidity
%
barometer
mb
20260902092724 60 181 2.6 7.0 0.00 0.18 0.01 83 1003.1
20260902091803 59 167 3.5 7.0 0.00 0.18 0.01 85 1003.1
20260902090903 58 189 2.6 7.8 0.00 0.18 0.01 85 1003.1
20260902090004 58 231 2.6 7.0 0.00 0.18 0.01 86 1003.1
20260902085403 58 178 2.6 8.7 0.00 0.18 0.01 87 1003.2
20260902084524 57 205 1.7 7.0 0.00 0.18 0.01 89 1003.1
20260902083603 57 204 2.6 7.0 0.00 0.18 0.01 89 1003.1
20260902082703 56 226 1.7 6.1 0.00 0.18 0.01 91 1003.1
20260902081824 56 207 2.6 7.0 0.00 0.18 0.01 92 1003.2
20260902080903 56 199 3.5 8.7 0.00 0.18 0.01 95 1003.0
20260902080003 55 201 1.7 6.1 0.00 0.18 0.01 96 1003.0
20260902075403 54 219 1.7 6.1 0.00 0.18 0.01 96 1003.0
20260902074503 54 214 1.7 7.0 0.00 0.18 0.01 96 1003.1
20260902073603 54 210 2.6 6.1 0.00 0.18 0.01 96 1003.0
20260902072703 54 194 2.6 5.2 0.00 0.18 0.01 96 1003.0
20260902071803 53 211 1.7 5.2 0.00 0.18 0.01 96 1002.9
20260902070903 53 218 1.7 6.1 0.00 0.18 0.01 96 1002.9
20260902070005 53 182 1.7 5.2 0.00 0.18 0.01 96 1002.9
20260902065403 53 204 2.6 6.1 0.00 0.18 0.01 97 1002.9
20260902064524 52 197 1.7 5.2 0.00 0.18 0.01 97 1002.8
20260902063603 52 200 2.6 6.1 0.00 0.18 0.01 96 1002.8
20260902062703 52 201 2.6 6.1 0.00 0.18 0.01 96 1002.7
20260902061803 52 166 1.7 5.2 0.00 0.18 0.01 96 1002.7
20260902060903 52 176 1.7 4.3 0.00 0.18 0.01 96 1002.6
20260902060024 52 181 1.7 4.3 0.00 0.18 0.01 97 1002.6
20260902055403 52 184 1.7 4.3 0.00 0.18 0.01 97 1002.6
20260902054503 52 200 2.6 6.1 0.00 0.18 0.01 96 1002.5
20260902053603 52 175 1.7 5.2 0.00 0.18 0.01 96 1002.4
20260902052703 51 175 0.9 5.2 0.00 0.18 0.01 96 1002.5
20260902051824 51 199 1.7 5.2 0.00 0.18 0.01 96 1002.4
20260902050903 51 211 2.6 5.2 0.00 0.18 0.01 96 1002.4
20260902050024 51 199 1.7 6.1 0.00 0.18 0.01 96 1002.4
20260902045403 51 204 1.7 6.1 0.00 0.18 0.01 96 1002.4
20260902044503 51 203 1.7 5.2 0.00 0.18 0.01 96 1002.4
20260902043603 51 184 1.7 5.2 0.00 0.18 0.01 96 1002.4
20260902042724 51 187 1.7 5.2 0.00 0.18 0.01 96 1002.3
20260902041803 51 199 0.9 5.2 0.00 0.18 0.01 96 1002.4
20260902040903 51 218 1.7 6.1 0.00 0.18 0.01 96 1002.4
20260902040003 51 287 0.9 2.6 0.00 0.18 0.01 96 1002.3
20260902035403 51 201 1.7 5.2 0.00 0.18 0.01 96 1002.3
20260902034503 51 205 0.9 5.2 0.00 0.18 0.01 96 1002.3
20260902033603 51 187 2.6 5.2 0.00 0.18 0.01 96 1002.4
20260902032703 51 180 0.9 4.3 0.00 0.18 0.01 96 1002.4
20260902031803 51 178 1.7 5.2 0.00 0.18 0.01 96 1002.4
20260902030903 51 177 1.7 4.3 0.00 0.18 0.01 96 1002.4
20260902030024 51 175 0.9 3.5 0.00 0.18 0.01 96 1002.4
20260902025403 50 175 0.9 3.5 0.00 0.18 0.01 96 1002.4
20260902024503 50 175 0.9 2.6 0.00 0.18 0.01 96 1002.4
20260902023603 50 175 0.9 5.2 0.00 0.18 0.01 96 1002.4
20260902022703 50 175 0.9 1.7 0.00 0.18 0.01 96 1002.3
20260902021803 50 175 0.9 2.6 0.00 0.18 0.01 96 1002.4
20260902020924 50 175 0.9 2.6 0.00 0.18 0.01 96 1002.4
20260902020003 50 174 0.9 4.3 0.00 0.18 0.01 96 1002.4
20260902015403 50 174 0.9 4.3 0.00 0.18 0.01 96 1002.4
20260902014503 50 173 0.9 4.3 0.00 0.18 0.01 96 1002.4
20260902013603 50 173 0.9 2.6 0.00 0.18 0.01 96 1002.5
20260902012703 50 173 0.9 1.7 0.00 0.18 0.01 96 1002.5
20260902011803 50 173 0.0 1.7 0.00 0.18 0.01 96 1002.6
20260902010903 50 173 0.9 2.6 0.00 0.18 0.01 96 1002.7
20260902010024 50 173 0.9 1.7 0.00 0.18 0.01 96 1002.6
20260902005403 50 173 0.9 2.6 0.00 0.18 0.01 96 1002.7
20260902004503 50 173 1.7 2.6 0.00 0.18 0.01 96 1002.7
20260902003603 50 173 0.9 2.6 0.00 0.18 0.01 96 1002.6
20260902002703 51 173 0.9 4.3 0.00 0.18 0.01 95 1002.7
20260902001803 51 173 1.7 2.6 0.00 0.18 0.01 96 1002.7
20260902000903 51 173 1.7 2.6 0.00 0.18 0.01 96 1002.7
20260902000003 51 173 0.9 2.6 0.00 0.18 0.01 96 1002.7
20260901235424 51 173 0.9 1.7 0.00 0.18 0.01 96 1002.7
20260901234503 51 173 0.9 1.7 0.00 0.18 0.01 96 1002.8
20260901233603 51 173 0.9 1.7 0.00 0.18 0.01 96 1002.8
20260901232703 51 173 0.9 2.6 0.00 0.18 0.01 96 1002.8
20260901231803 51 173 0.9 2.6 0.00 0.18 0.01 96 1002.9
20260901230903 51 173 1.7 4.3 0.00 0.18 0.01 96 1002.9
20260901230004 51 173 1.7 4.3 0.00 0.18 0.01 96 1003.0
20260901225403 51 190 1.7 4.3 0.00 0.18 0.01 96 1003.0
20260901224524 51 223 1.7 2.6 0.00 0.18 0.01 96 1003.0
20260901223603 51 223 0.9 2.6 0.01 0.18 0.01 96 1003.1
20260901222703 50 223 0.9 2.6 0.01 0.18 0.01 96 1003.1
20260901221803 50 223 0.9 2.6 0.01 0.18 0.01 96 1003.1
20260901220903 49 223 0.0 1.7 0.01 0.18 0.01 96 1003.1
20260901220003 49 223 0.9 2.6 0.01 0.18 0.01 95 1003.1
20260901215403 48 223 0.0 1.7 0.01 0.18 0.01 95 1003.2
20260901214503 48 0 0.0 0.0 0.01 0.18 0.01 94 1003.3
20260901213603 48 0 0.0 0.0 0.00 0.17 0.00 94 1003.3
20260901212703 48 0 0.0 0.0 0.00 0.17 0.00 94 1003.2
20260901211803 49 0 0.0 0.0 0.00 0.17 0.00 94 1003.3
20260901210924 49 0 0.0 0.0 0.00 0.17 0.00 93 1003.2
20260901210005 50 0 0.0 0.0 0.00 0.17 0.00 93 1003.3
20260901205403 50 0 0.0 0.0 0.00 0.17 0.17 93 1003.3
20260901204503 51 0 0.0 0.0 0.00 0.17 0.17 93 1003.3
20260901203624 52 223 0.0 2.6 0.00 0.17 0.17 93 1003.3
20260901202703 52 223 0.9 2.6 0.00 0.17 0.17 93 1003.3
20260901201803 53 223 0.0 2.6 0.00 0.17 0.17 93 1003.3
20260901200924 53 223 0.9 3.5 0.00 0.17 0.17 94 1003.3
20260901200003 54 223 0.9 3.5 0.00 0.17 0.17 94 1003.3
20260901195424 54 223 1.7 3.5 0.00 0.17 0.17 94 1003.3
20260901194503 54 223 0.9 3.5 0.00 0.17 0.17 93 1003.2
20260901193603 54 223 0.0 0.9 0.00 0.17 0.17 93 1003.2
20260901192703 55 223 0.9 2.6 0.00 0.17 0.17 93 1003.2
20260901191803 55 278 2.6 5.2 0.00 0.17 0.17 94 1003.2
20260901190903 56 276 0.9 6.1 0.00 0.17 0.17 95 1003.2
20260901190003 56 292 1.7 5.2 0.00 0.17 0.17 95 1003.2
20260901185424 56 313 1.7 3.5 0.00 0.17 0.17 94 1003.2
20260901184503 56 306 2.6 6.1 0.00 0.17 0.17 94 1003.1
20260901183603 56 304 2.6 4.3 0.00 0.17 0.17 94 1003.0
20260901182724 56 304 1.7 3.5 0.00 0.17 0.17 94 1003.1
20260901181803 55 304 1.7 2.6 0.00 0.17 0.17 93 1003.1
20260901180903 55 304 0.0 2.6 0.00 0.17 0.17 91 1003.2
20260901180024 56 0 0.0 0.0 0.00 0.17 0.17 91 1003.1
20260901175403 57 0 0.0 0.0 0.00 0.17 0.17 92 1003.0
20260901174503 58 304 0.0 2.6 0.00 0.17 0.17 92 1003.1
20260901173603 58 304 1.7 3.5 0.00 0.17 0.17 92 1002.9
20260901172703 59 304 1.7 2.6 0.00 0.17 0.17 92 1002.9
20260901171803 59 306 2.6 6.1 0.00 0.17 0.17 93 1002.8
20260901170903 59 297 2.6 5.2 0.00 0.17 0.17 93 1002.8
20260901170024 59 293 3.5 7.0 0.00 0.17 0.17 93 1002.8
20260901165403 59 293 3.5 7.8 0.00 0.17 0.17 92 1002.8
20260901164503 60 288 2.6 8.7 0.02 0.17 0.17 92 1002.7
20260901163603 60 262 0.9 5.2 0.17 0.17 0.17 93 1002.6
20260901162724 61 223 0.0 0.9 0.17 0.17 0.17 94 1002.7
20260901161803 60 0 0.0 0.0 0.17 0.17 0.17 93 1002.6
20260901160903 60 223 0.0 1.7 0.17 0.17 0.17 92 1002.6
20260901160003 60 222 0.9 2.6 0.17 0.17 0.17 90 1002.6
20260901155403 60 162 3.5 9.6 0.17 0.17 0.17 88 1002.6
20260901154503 62 182 5.2 20.0 0.15 0.15 0.15 84 1002.8
20260901153603 63 159 1.7 4.3 0.00 0.00 0.00 86 1002.6
20260901152703 64 152 1.7 4.3 0.00 0.00 0.00 85 1002.5
20260901151803 64 172 1.7 4.3 0.00 0.00 0.00 85 1002.5
20260901150904 64 178 1.7 3.5 0.00 0.00 0.00 85 1002.5
20260901150025 64 178 0.9 2.6 0.00 0.00 0.00 84 1002.5
20260901145404 64 178 1.7 2.6 0.00 0.00 0.00 84 1002.6
20260901144525 65 166 1.7 5.2 0.00 0.00 0.00 83 1002.6
20260901143604 64 155 0.9 4.3 0.00 0.00 0.00 83 1002.6
20260901142704 64 160 1.7 5.2 0.00 0.00 0.00 83 1002.7
20260901141804 65 160 2.6 6.1 0.00 0.00 0.00 83 1002.8
20260901140904 64 164 3.5 7.0 0.00 0.00 0.00 84 1002.8
20260901140025 64 178 2.6 7.0 0.00 0.00 0.00 83 1002.9
20260901135404 64 176 1.7 4.3 0.00 0.00 0.00 83 1002.9
20260901134504 64 197 1.7 4.3 0.00 0.00 0.00 85 1002.8
20260901133604 64 152 0.9 2.6 0.00 0.00 0.00 83 1002.8
20260901132704 64 159 1.7 5.2 0.00 0.00 0.00 85 1002.9
20260901131804 63 168 2.6 4.3 0.00 0.00 0.00 86 1003.0
20260901130904 63 172 2.6 5.2 0.00 0.00 0.00 86 1003.1
20260901130004 63 162 2.6 6.1 0.00 0.00 0.00 86 1003.0
20260901125404 63 165 2.6 7.0 0.00 0.00 0.00 86 1003.0
20260901124505 63 165 3.5 7.0 0.00 0.00 0.00 86 1003.1
20260901123604 63 164 1.7 5.2 0.00 0.00 0.00 87 1003.1
20260901122704 62 171 2.6 4.3 0.00 0.00 0.00 87 1003.2
20260901121804 62 164 2.6 5.2 0.00 0.00 0.00 86 1003.2
20260901120925 62 192 1.7 5.2 0.00 0.00 0.00 86 1003.2
20260901120004 62 196 0.9 2.6 0.00 0.00 0.00 86 1003.2
20260901115404 62 179 0.9 6.1 0.00 0.00 0.00 86 1003.2
20260901114504 62 190 1.7 4.3 0.00 0.00 0.00 86 1003.2
20260901113604 62 199 2.6 7.0 0.00 0.00 0.00 86 1003.2
20260901112725 62 179 1.7 5.2 0.00 0.00 0.00 86 1003.2
20260901111804 62 258 1.7 5.2 0.00 0.00 0.00 84 1003.2
20260901110904 63 212 1.7 5.2 0.00 0.00 0.00 84 1003.1
20260901110004 63 206 2.6 6.1 0.00 0.00 0.00 83 1003.0
20260901105404 63 239 1.7 5.2 0.00 0.00 0.00 83 1003.0
20260901104525 63 276 1.7 5.2 0.00 0.00 0.00 84 1003.0
20260901103625 63 213 1.7 6.1 0.00 0.00 0.00 84 1003.0
20260901102725 63 228 1.7 5.2 0.00 0.00 0.00 84 1003.0
20260901101804 63 193 2.6 6.1 0.00 0.01 0.00 84 1003.0
20260901100904 63 181 1.7 6.1 0.00 0.01 0.00 84 1002.9
20260901100004 63 194 1.7 4.3 0.00 0.01 0.00 84 1002.9
20260901095404 63 178 1.7 5.2 0.00 0.01 0.00 85 1002.9
20260901094504 63 203 3.5 9.6 0.00 0.01 0.00 84 1002.8
20260901093604 63 163 2.6 7.0 0.00 0.01 0.00 85 1002.8